Location: Unspecified
(0.0000°N, 0.0000°E)
Time: 00:01:58
(UTC+00:00)

LilacSat-2 - Visible Passes

Search period start: 19 August 2019 00:00
Search period end: 29 August 2019 00:00
Orbit: 513 x 536 km, 97.5° (Epoch: 16 August)

Date Brightness Start Highest point End Pass type
(mag) Time Alt. Az. Time Alt. Az. Time Alt. Az.
19 Aug ? 05:07:07 10° NNE 05:10:40 36° ESE 05:14:15 10° S visible
20 Aug ? 04:55:28 10° NE 04:58:36 24° ESE 05:01:43 10° SSE visible
20 Aug ? 18:25:00 10° SW 18:26:33 12° WSW 18:28:06 10° WNW visible
21 Aug ? 04:44:09 10° ENE 04:46:31 16° ESE 04:48:52 10° SE visible
22 Aug ? 04:34:16 10° E 04:34:26 10° ESE 04:34:36 10° ESE visible
25 Aug ? 05:28:16 10° NNE 05:32:07 85° E 05:36:00 10° S visible
26 Aug ? 05:16:16 10° NNE 05:20:02 52° E 05:23:48 10° S visible
27 Aug ? 05:04:28 10° NE 05:07:57 33° E 05:11:27 10° SSE visible
28 Aug ? 04:52:53 10° NE 04:55:52 21° ESE 04:58:51 10° SSE visible
